| time (UTC) | temp F | wind direction | speed MPH | gust MPH | rain 1hr in | rain 24hr in | rain mn in | humidity % | barometer mb |
| 20260906002312 | 55 | 0 | 0.0 | 7.0 | 0.00 | 0.10 | 0.00 | 62 | 1023.6 |
| 20260906001312 | 55 | 0 | 0.0 | 3.0 | 0.00 | 0.10 | 0.00 | 62 | 1023.3 |
| 20260905235311 | 56 | 0 | 0.0 | 0.0 | 0.00 | 0.10 | 0.00 | 63 | 1023.2 |
| 20260905234311 | 56 | 0 | 0.0 | 7.0 | 0.00 | 0.10 | 0.00 | 63 | 1023.0 |
| 20260905233311 | 56 | 337 | 6.0 | 10.0 | 0.00 | 0.10 | 0.00 | 64 | 1022.9 |
| 20260905232311 | 56 | 22 | 6.0 | 9.0 | 0.00 | 0.10 | 0.00 | 64 | 1022.9 |
| 20260905231311 | 56 | 22 | 7.0 | 11.0 | 0.00 | 0.10 | 0.00 | 65 | 1022.9 |
| 20260905230311 | 56 | 22 | 7.0 | 10.0 | 0.00 | 0.10 | 0.00 | 65 | 1023.0 |
| 20260905225311 | 57 | 22 | 6.0 | 13.0 | 0.00 | 0.10 | 0.00 | 65 | 1023.0 |
| 20260905224310 | 57 | 45 | 7.0 | 10.0 | 0.00 | 0.10 | 0.00 | 67 | 1022.7 |
| 20260905222310 | 56 | 22 | 6.0 | 11.0 | 0.00 | 0.10 | 0.00 | 68 | 1022.3 |
| 20260905221310 | 56 | 22 | 5.0 | 10.0 | 0.00 | 0.10 | 0.00 | 69 | 1022.2 |
| 20260905220310 | 55 | 360 | 5.0 | 7.0 | 0.00 | 0.10 | 0.10 | 71 | 1022.0 |
| 20260905215310 | 56 | 22 | 4.0 | 5.0 | 0.00 | 0.10 | 0.10 | 71 | 1022.2 |
| 20260905213309 | 56 | 360 | 3.0 | 6.0 | 0.00 | 0.10 | 0.10 | 70 | 1021.9 |
| 20260905212309 | 56 | 360 | 4.0 | 9.0 | 0.00 | 0.10 | 0.10 | 71 | 1021.9 |
| 20260905211309 | 55 | 22 | 4.0 | 6.0 | 0.00 | 0.10 | 0.10 | 72 | 1021.6 |
| 20260905210309 | 55 | 360 | 3.0 | 5.0 | 0.00 | 0.10 | 0.10 | 73 | 1021.4 |
| 20260905205309 | 56 | 22 | 3.0 | 4.0 | 0.00 | 0.10 | 0.10 | 72 | 1021.4 |
| 20260905204314 | 55 | 360 | 4.0 | 6.0 | 0.00 | 0.10 | 0.10 | 72 | 1021.4 |
| 20260905203315 | 55 | 22 | 2.0 | 5.0 | 0.00 | 0.10 | 0.10 | 74 | 1021.4 |
| 20260905202314 | 54 | 22 | 5.0 | 9.0 | 0.00 | 0.10 | 0.10 | 75 | 1021.4 |
| 20260905201313 | 55 | 22 | 4.0 | 7.0 | 0.00 | 0.10 | 0.10 | 75 | 1021.3 |
| 20260905200313 | 55 | 22 | 4.0 | 6.0 | 0.00 | 0.10 | 0.10 | 75 | 1021.2 |
| 20260905195313 | 56 | 22 | 3.0 | 6.0 | 0.00 | 0.10 | 0.10 | 75 | 1021.4 |
| 20260905194313 | 56 | 360 | 4.0 | 7.0 | 0.00 | 0.10 | 0.10 | 74 | 1021.3 |
| 20260905193313 | 56 | 360 | 3.0 | 5.0 | 0.00 | 0.10 | 0.10 | 76 | 1021.2 |
| 20260905192313 | 57 | 337 | 2.0 | 5.0 | 0.00 | 0.10 | 0.10 | 77 | 1021.2 |
| 20260905191313 | 57 | 360 | 3.0 | 6.0 | 0.00 | 0.10 | 0.10 | 77 | 1020.9 |
| 20260905190312 | 57 | 22 | 1.0 | 5.0 | 0.00 | 0.10 | 0.10 | 77 | 1020.8 |
| 20260905185312 | 58 | 22 | 4.0 | 5.0 | 0.00 | 0.10 | 0.10 | 76 | 1021.0 |
| 20260905184314 | 58 | 22 | 4.0 | 5.0 | 0.00 | 0.10 | 0.10 | 75 | 1021.0 |
| 20260905183312 | 58 | 360 | 2.0 | 6.0 | 0.00 | 0.10 | 0.10 | 74 | 1020.7 |
| 20260905182312 | 59 | 22 | 3.0 | 6.0 | 0.00 | 0.10 | 0.10 | 72 | 1020.7 |
| 20260905181312 | 60 | 45 | 2.0 | 6.0 | 0.00 | 0.10 | 0.10 | 69 | 1020.6 |
| 20260905180312 | 61 | 0 | 0.0 | 0.0 | 0.00 | 0.10 | 0.10 | 68 | 1020.6 |
| 20260905174311 | 63 | 0 | 0.0 | 3.0 | 0.00 | 0.10 | 0.10 | 62 | 1020.6 |
| 20260905173311 | 63 | 270 | 3.0 | 8.0 | 0.00 | 0.10 | 0.10 | 61 | 1020.4 |
| 20260905172311 | 64 | 180 | 0.0 | 6.0 | 0.00 | 0.10 | 0.10 | 61 | 1020.6 |
| 20260905165311 | 65 | 180 | 3.0 | 8.0 | 0.00 | 0.10 | 0.10 | 61 | 1020.7 |
| 20260905164311 | 65 | 202 | 0.0 | 10.0 | 0.00 | 0.10 | 0.10 | 62 | 1020.8 |
| 20260905163311 | 65 | 180 | 5.0 | 11.0 | 0.00 | 0.10 | 0.10 | 62 | 1020.6 |
| 20260905162310 | 65 | 292 | 0.0 | 7.0 | 0.00 | 0.10 | 0.10 | 63 | 1020.6 |
| 20260905161310 | 65 | 247 | 3.0 | 13.0 | 0.00 | 0.10 | 0.10 | 63 | 1020.9 |
| 20260905160310 | 65 | 315 | 3.0 | 10.0 | 0.00 | 0.10 | 0.10 | 62 | 1020.5 |
| 20260905155310 | 65 | 180 | 1.0 | 15.0 | 0.00 | 0.10 | 0.10 | 62 | 1020.5 |
| 20260905154310 | 65 | 225 | 0.0 | 9.0 | 0.00 | 0.10 | 0.10 | 65 | 1020.5 |
| 20260905153310 | 65 | 247 | 1.0 | 10.0 | 0.00 | 0.10 | 0.10 | 63 | 1020.4 |
| 20260905152311 | 66 | 180 | 4.0 | 17.0 | 0.00 | 0.10 | 0.10 | 63 | 1020.6 |
| 20260905151310 | 65 | 180 | 3.0 | 9.0 | 0.00 | 0.10 | 0.10 | 66 | 1020.7 |
| 20260905145309 | 65 | 270 | 4.0 | 15.0 | 0.01 | 0.10 | 0.10 | 62 | 1020.4 |
| 20260905144309 | 66 | 180 | 4.0 | 15.0 | 0.01 | 0.10 | 0.10 | 62 | 1020.6 |
| 20260905143314 | 65 | 337 | 1.0 | 14.0 | 0.01 | 0.10 | 0.10 | 64 | 1020.6 |
| 20260905142314 | 65 | 180 | 2.0 | 7.0 | 0.01 | 0.10 | 0.10 | 65 | 1020.6 |
| 20260905141313 | 65 | 180 | 3.0 | 17.0 | 0.01 | 0.10 | 0.10 | 68 | 1020.8 |
| 20260905140313 | 64 | 202 | 3.0 | 11.0 | 0.00 | 0.09 | 0.09 | 69 | 1020.9 |
| 20260905135313 | 65 | 247 | 4.0 | 9.0 | 0.00 | 0.09 | 0.09 | 69 | 1020.9 |
| 20260905132313 | 65 | 270 | 2.0 | 11.0 | 0.00 | 0.09 | 0.09 | 69 | 1020.9 |
| 20260905130313 | 64 | 180 | 4.0 | 14.0 | 0.00 | 0.09 | 0.09 | 72 | 1020.6 |
| 20260905124313 | 63 | 292 | 3.0 | 7.0 | 0.00 | 0.09 | 0.09 | 76 | 1020.7 |
| 20260905123312 | 62 | 180 | 2.0 | 11.0 | 0.00 | 0.09 | 0.09 | 78 | 1021.1 |
| 20260905122312 | 61 | 180 | 3.0 | 7.0 | 0.00 | 0.09 | 0.09 | 84 | 1021.0 |
| 20260905121312 | 60 | 315 | 2.0 | 7.0 | 0.00 | 0.09 | 0.09 | 86 | 1021.1 |
| 20260905120312 | 59 | 180 | 2.0 | 9.0 | 0.00 | 0.09 | 0.09 | 86 | 1020.8 |
| 20260905115312 | 58 | 0 | 0.0 | 5.0 | 0.00 | 0.09 | 0.09 | 88 | 1020.8 |
| 20260905113312 | 57 | 0 | 0.0 | 0.0 | 0.00 | 0.09 | 0.09 | 90 | 1020.6 |
| 20260905112311 | 57 | 0 | 0.0 | 5.0 | 0.00 | 0.09 | 0.09 | 91 | 1020.6 |
| 20260905111311 | 56 | 270 | 1.0 | 7.0 | 0.00 | 0.09 | 0.09 | 92 | 1020.3 |
| 20260905110311 | 56 | 0 | 0.0 | 8.0 | 0.00 | 0.09 | 0.09 | 92 | 1019.9 |
| 20260905105311 | 56 | 180 | 0.0 | 5.0 | 0.00 | 0.09 | 0.09 | 92 | 1019.9 |
| 20260905104311 | 55 | 270 | 0.0 | 5.0 | 0.00 | 0.09 | 0.09 | 92 | 1019.9 |
| 20260905102311 | 55 | 0 | 0.0 | 3.0 | 0.00 | 0.09 | 0.09 | 93 | 1019.8 |
| 20260905100310 | 54 | 0 | 0.0 | 0.0 | 0.00 | 0.09 | 0.09 | 93 | 1019.9 |
| 20260905095310 | 54 | 292 | 1.0 | 5.0 | 0.00 | 0.09 | 0.09 | 93 | 1019.9 |
| 20260905094310 | 54 | 0 | 0.0 | 7.0 | 0.00 | 0.09 | 0.09 | 93 | 1019.9 |
| 20260905093310 | 54 | 0 | 0.0 | 0.0 | 0.00 | 0.09 | 0.09 | 93 | 1019.9 |
| 20260905092310 | 54 | 0 | 0.0 | 7.0 | 0.00 | 0.09 | 0.09 | 93 | 1019.9 |
| 20260905090309 | 54 | 0 | 0.0 | 3.0 | 0.00 | 0.09 | 0.09 | 93 | 1019.5 |
| 20260905085309 | 53 | 247 | 2.0 | 5.0 | 0.00 | 0.09 | 0.09 | 93 | 1019.5 |
| 20260905084309 | 53 | 225 | 1.0 | 7.0 | 0.00 | 0.09 | 0.09 | 92 | 1019.4 |
| 20260905083309 | 53 | 0 | 0.0 | 4.0 | 0.00 | 0.09 | 0.09 | 92 | 1019.3 |
| 20260905082314 | 54 | 292 | 0.0 | 10.0 | 0.00 | 0.09 | 0.09 | 91 | 1019.3 |
| 20260905081314 | 54 | 0 | 0.0 | 0.0 | 0.00 | 0.09 | 0.09 | 90 | 1019.5 |
| 20260905075314 | 54 | 337 | 1.0 | 5.0 | 0.00 | 0.09 | 0.09 | 90 | 1019.3 |
| 20260905074314 | 54 | 0 | 0.0 | 3.0 | 0.01 | 0.09 | 0.09 | 91 | 1018.9 |
| 20260905073313 | 54 | 0 | 0.0 | 0.0 | 0.01 | 0.09 | 0.09 | 91 | 1018.8 |
| 20260905072313 | 54 | 0 | 0.0 | 3.0 | 0.02 | 0.09 | 0.09 | 91 | 1018.8 |
| 20260905070313 | 54 | 0 | 0.0 | 0.0 | 0.02 | 0.09 | 0.09 | 91 | 1017.7 |
| 20260905065313 | 54 | 0 | 0.0 | 0.0 | 0.02 | 0.09 | 0.09 | 91 | 1017.7 |
| 20260905064313 | 54 | 0 | 0.0 | 0.0 | 0.02 | 0.09 | 0.09 | 91 | 1017.7 |
| 20260905062312 | 54 | 0 | 0.0 | 0.0 | 0.02 | 0.08 | 0.08 | 89 | 1017.3 |
| 20260905061312 | 55 | 0 | 0.0 | 0.0 | 0.03 | 0.08 | 0.08 | 88 | 1017.6 |
| 20260905055312 | 55 | 0 | 0.0 | 0.0 | 0.07 | 0.08 | 0.08 | 85 | 1017.7 |
| 20260905054312 | 56 | 0 | 0.0 | 0.0 | 0.07 | 0.07 | 0.07 | 83 | 1018.1 |
| 20260905053312 | 56 | 360 | 0.0 | 5.0 | 0.07 | 0.07 | 0.07 | 83 | 1018.6 |
| 20260905052312 | 57 | 0 | 0.0 | 3.0 | 0.06 | 0.06 | 0.06 | 80 | 1018.7 |
| 20260905051311 | 57 | 0 | 0.0 | 2.0 | 0.05 | 0.05 | 0.05 | 77 | 1019.0 |
| 20260905050311 | 58 | 0 | 0.0 | 10.0 | 0.05 | 0.05 | 0.05 | 73 | 1018.7 |
| 20260905045311 | 60 | 315 | 5.0 | 13.0 | 0.01 | 0.01 | 0.01 | 67 | 1018.8 |
| 20260905044313 | 60 | 45 | 7.0 | 14.0 | 0.00 | 0.00 | 0.00 | 62 | 1018.3 |
| 20260905043311 | 61 | 315 | 1.0 | 17.0 | 0.00 | 0.00 | 0.00 | 62 | 1017.1 |
| 20260905042311 | 61 | 360 | 8.0 | 22.0 | 0.00 | 0.00 | 0.00 | 65 | 1017.1 |
| 20260905041311 | 61 | 337 | 6.0 | 14.0 | 0.00 | 0.00 | 0.00 | 67 | 1017.2 |
| 20260905040310 | 62 | 360 | 3.0 | 9.0 | 0.00 | 0.00 | 0.00 | 66 | 1016.7 |
| 20260905034310 | 62 | 22 | 11.0 | 14.0 | 0.00 | 0.00 | 0.00 | 67 | 1016.4 |
| 20260905033310 | 62 | 45 | 7.0 | 13.0 | 0.00 | 0.00 | 0.00 | 69 | 1016.3 |
| 20260905032310 | 63 | 22 | 1.0 | 13.0 | 0.00 | 0.00 | 0.00 | 70 | 1016.5 |
| 20260905031310 | 63 | 45 | 8.0 | 12.0 | 0.00 | 0.00 | 0.00 | 72 | 1016.8 |
| 20260905030310 | 63 | 360 | 10.0 | 16.0 | 0.00 | 0.00 | 0.00 | 73 | 1016.4 |
| 20260905025309 | 64 | 22 | 13.0 | 16.0 | 0.00 | 0.00 | 0.00 | 74 | 1016.6 |
| 20260905024310 | 64 | 360 | 9.0 | 11.0 | 0.00 | 0.00 | 0.00 | 74 | 1016.1 |
| 20260905023309 | 64 | 45 | 5.0 | 8.0 | 0.00 | 0.00 | 0.00 | 75 | 1016.1 |
| 20260905022309 | 64 | 67 | 4.0 | 8.0 | 0.00 | 0.00 | 0.00 | 75 | 1016.1 |
| 20260905021309 | 64 | 22 | 6.0 | 9.0 | 0.00 | 0.00 | 0.00 | 77 | 1016.1 |
| 20260905015314 | 64 | 0 | 0.0 | 0.0 | 0.00 | 0.00 | 0.00 | 76 | 1016.1 |
| 20260905014314 | 64 | 0 | 0.0 | 3.0 | 0.00 | 0.00 | 0.00 | 76 | 1016.1 |
| 20260905013313 | 64 | 0 | 0.0 | 0.0 | 0.00 | 0.00 | 0.00 | 75 | 1016.1 |
| 20260905012313 | 64 | 0 | 0.0 | 0.0 | 0.00 | 0.00 | 0.00 | 75 | 1015.9 |
| 20260905011313 | 64 | 0 | 0.0 | 8.0 | 0.00 | 0.00 | 0.00 | 75 | 1016.0 |
| 20260905010313 | 64 | 0 | 0.0 | 2.0 | 0.00 | 0.00 | 0.00 | 75 | 1016.2 |
| 20260905005313 | 64 | 0 | 0.0 | 0.0 | 0.00 | 0.00 | 0.00 | 75 | 1016.0 |
| 20260905004313 | 64 | 0 | 0.0 | 0.0 | 0.00 | 0.00 | 0.00 | 76 | 1015.6 |
| 20260905003313 | 64 | 0 | 0.0 | 0.0 | 0.00 | 0.00 | 0.00 | 75 | 1015.6 |